Culdrose, United Kingdom

11:18 PM BST on October 18, 2017 (GMT +0100)
Culdrose Navy

Weather History for EGDR - November, 2012

Change the Weather History Date:

Wednesday, November 28, 2012

  Actual Average Record
Temperature  
Mean Temperature 43 °F -  
Max Temperature 48 °F 47 °F 57 °F (1999)
Min Temperature 38 °F 40 °F 21 °F (2010)
Degree Days  
Heating Degree Days 22    
Moisture  
Dew Point 39 °F    
Average Humidity 85    
Maximum Humidity 93    
Minimum Humidity 74    
Precipitation  
Precipitation 0.00 in - - ()
Sea Level Pressure  
Sea Level Pressure 30.04 in    
Wind  
Wind Speed 10 mph ()    
Max Wind Speed 18 mph    
Max Gust Speed 30 mph    
Visibility 8.1 miles    
Events      
Averages and records for this station are not official NWS values.
T = Trace of Precipitation, MM = Missing Value Source: Averaged Metar Reports

Daily Weather History Graph

Daily Weather History Graph

Search for Another Location

Airport or City:

Trip Planner

Search our weather history database for the weather conditions in past years. The results will help you decide how hot, cold, wet, or windy it might be!

Date:

Astronomy

Nov. 28, 2012 Rise Set
Actual Time 7:54 AM GMT 4:23 PM GMT
Civil Twilight 7:17 AM GMT 5:00 PM GMT
Nautical Twilight 6:36 AM GMT 5:41 PM GMT
Astronomical Twilight 5:57 AM GMT 6:20 PM GMT
Moon 4:27 PM GMT (11/28) 7:39 AM GMT (11/28)
Length of Visible Light 9h 43m
Length of Day
8h 28m
Full, 100% of the Moon is Illuminated
Nov 28
Full
Nov 28
Full
Dec 6
Last Quarter
Dec 13
New
Dec 20
First Quarter

Hourly Weather History & Observations

Time (GMT) Temp. Windchill Dew Point Humidity Pressure Visibility Wind Dir Wind Speed Gust Speed Precip Events Conditions
12:50 AM 44.6 °F 37.4 °F 41.0 °F 87% 29.98 in 6.2 mi NE 16.1 mph - N/A   Mostly Cloudy
1:50 AM 42.8 °F 37.0 °F 39.2 °F 87% 29.98 in 6.2 mi NE 10.4 mph - N/A   Mostly Cloudy
2:50 AM 41 °F - 38 °F 85% 30.01 in 16 mi NE 11.5 mph - -   Mostly Cloudy
2:50 AM 41.0 °F 34.3 °F 37.4 °F 87% 29.98 in 6.2 mi NE 11.5 mph - N/A   Mostly Cloudy
3:50 AM 42.8 °F 36.6 °F 39.2 °F 87% 29.98 in 6.2 mi NE 11.5 mph - N/A   Scattered Clouds
4:50 AM 41.0 °F 34.7 °F 37.4 °F 87% 30.01 in 6.2 mi NE 10.4 mph - N/A   Partly Cloudy
5:50 AM 38 °F - 36 °F 90% 30.02 in 16 mi ENE 6.9 mph - -   Scattered Clouds
5:50 AM 39.2 °F 34.2 °F 35.6 °F 87% 30.01 in 6.2 mi ENE 6.9 mph - N/A   Partly Cloudy
6:50 AM 41.0 °F 34.3 °F 37.4 °F 87% 30.01 in 6.2 mi NE 11.5 mph - N/A   Scattered Clouds
7:50 AM 39.2 °F 33.0 °F 37.4 °F 93% 30.01 in 6.2 mi NE 9.2 mph - N/A   Scattered Clouds
8:50 AM 44 °F - 39 °F 78% 30.05 in 16 mi NE 5.8 mph - -   Partly Cloudy
8:50 AM 42.8 °F 39.3 °F 39.2 °F 87% 30.04 in 6.2 mi NE 5.8 mph - N/A   Scattered Clouds
9:50 AM 46.4 °F 40.4 °F 41.0 °F 81% 30.04 in 6.2 mi NE 13.8 mph 26.5 mph N/A   Partly Cloudy
10:50 AM 48.2 °F - 42.8 °F 82% 30.04 in 6.2 mi NE 12.7 mph - N/A   Scattered Clouds
11:50 AM 46 °F - 40 °F 74% 30.06 in 16 mi NNE 18.4 mph - -   Partly Cloudy
11:50 AM 46.4 °F 39.2 °F 41.0 °F 81% 30.04 in 6.2 mi NNE 18.4 mph 29.9 mph N/A   Scattered Clouds
12:50 PM 46.4 °F 39.5 °F 41.0 °F 81% 30.04 in 6.2 mi NNE 17.3 mph 28.8 mph N/A   Partly Cloudy
1:50 PM 46.4 °F 39.8 °F 41.0 °F 81% 30.04 in 6.2 mi NE 16.1 mph - N/A   Partly Cloudy
2:50 PM 46 °F - 40 °F 74% 30.05 in 12 mi NE 12.7 mph - -   Partly Cloudy
2:50 PM 46.4 °F 40.7 °F 41.0 °F 81% 30.04 in 6.2 mi NE 12.7 mph - N/A   Partly Cloudy
3:50 PM 44.6 °F 39.7 °F 39.2 °F 81% 30.04 in 6.2 mi NE 9.2 mph - N/A   Partly Cloudy
4:50 PM 42.8 °F 36.2 °F 37.4 °F 81% 30.04 in 6.2 mi NNE 12.7 mph - N/A   Partly Cloudy
5:50 PM 42 °F - 37 °F 78% 30.08 in 12 mi NNE 13.8 mph - -   Partly Cloudy
5:50 PM 42.8 °F 35.8 °F 37.4 °F 81% 30.06 in 6.2 mi NNE 13.8 mph - N/A   Scattered Clouds
6:50 PM 41.0 °F 33.9 °F 37.4 °F 87% 30.06 in 6.2 mi NNE 12.7 mph - N/A   Partly Cloudy
7:50 PM 41.0 °F 35.8 °F 37.4 °F 87% 30.06 in 6.2 mi NNE 8.1 mph - N/A   Partly Cloudy
8:50 PM 40 °F - 37 °F 83% 30.09 in 12 mi NE 9.2 mph - -   Scattered Clouds
8:50 PM 39.2 °F 33.0 °F 37.4 °F 93% 30.06 in 6.2 mi NE 9.2 mph - N/A   Partly Cloudy
9:50 PM 39.2 °F 33.6 °F 37.4 °F 93% 30.06 in 6.2 mi NNE 8.1 mph - N/A   Partly Cloudy
10:50 PM 39.2 °F 32.0 °F 37.4 °F 93% 30.06 in 6.2 mi NNE 11.5 mph - N/A   Partly Cloudy
11:50 PM 41 °F - 38 °F 84% 30.08 in 12 mi ENE 8.1 mph - -   Partly Cloudy
11:50 PM 41.0 °F 35.8 °F 37.4 °F 87% 30.06 in 6.2 mi ENE 8.1 mph - N/A   Scattered Clouds